Theta_e
344 345 348 354 354 354 354 354 354 353 353 352 353 352 352 352 351 351 351 351 350 350 350 350 349 349 349 349 349 348 348 348 348 348 348 348 348 347 347 347 348 348 347 348 347 346 350 348 348 348 347 347 348 348 347 346 346 346 347 346 346 346 346 346 345 346 345 345 346 345 344 343 342 341 340 339 340 341 341 342 341 342 343 345 345
344 346 349 351 355 354 354 354 353 353 352 353 352 352 351 351 351 351 351 350 350 349 349 349 349 349 349 348 348 348 348 348 348 348 348 348 347 347 347 347 348 348 347 347 348 349 348 347 347 347 346 347 347 346 346 345 345 346 346 345 345 346 346 346 346 346 345 344 345 345 344 344 343 341 342 342 342 340 341 340 343 341 344 343 342
345 347 350 352 354 354 354 354 353 353 353 352 352 351 351 351 351 350 350 349 349 349 349 349 349 349 348 348 348 348 348 348 347 347 348 347 347 347 347 347 347 347 347 347 347 347 348 347 347 347 347 347 347 346 345 345 346 346 345 346 345 345 345 345 345 345 346 345 346 346 345 344 343 341 341 341 339 339 341 341 342 342 343 341 341
345 347 350 352 354 354 353 353 353 353 353 352 352 351 350 350 350 349 349 349 349 349 349 349 348 348 348 348 348 348 348 348 348 349 349 348 348 347 348 348 348 347 347 347 348 349 348 347 347 347 346 347 346 346 346 345 345 345 345 345 345 344 344 344 345 345 346 346 345 343 341 339 340 341 341 340 340 340 341 343 342 340 340 340 339
346 348 350 351 351 353 353 353 353 352 352 352 351 350 350 349 349 349 349 349 348 349 349 348 348 348 348 348 348 348 348 348 348 349 350 348 348 348 348 348 348 347 346 347 348 348 347 347 347 347 347 347 347 347 346 346 345 345 345 345 344 344 344 345 344 345 345 345 344 341 338 338 339 342 342 340 340 340 342 342 342 341 340 339 342
346 348 349 350 350 351 353 352 351 352 352 351 350 350 350 349 349 349 349 348 349 349 348 348 348 348 348 348 348 348 348 348 348 349 349 348 348 347 348 348 347 347 347 347 347 347 347 346 346 346 347 347 347 346 346 345 345 345 344 344 345 344 344 344 344 344 344 343 341 337 337 338 339 341 340 341 339 340 339 339 342 341 342 341 340
347 348 348 349 349 351 352 351 351 352 351 350 350 349 349 349 349 349 348 349 349 348 348 348 348 348 348 348 348 348 348 348 348 348 348 347 347 347 348 347 347 347 347 348 348 347 347 346 346 347 347 347 347 345 345 345 345 344 343 344 344 344 344 343 343 344 344 339 336 336 336 338 339 340 340 341 341 341 340 341 341 340 339 339 340
347 348 348 348 349 351 352 351 351 351 350 350 350 349 349 349 349 349 349 348 348 348 348 348 348 347 347 348 348 348 348 348 349 347 347 347 347 347 346 347 346 345 347 347 347 347 346 347 347 347 348 347 346 346 345 344 344 344 344 345 345 344 343 343 343 343 342 336 335 335 335 336 338 340 341 342 342 343 343 342 341 340 340 341 341
346 347 348 347 348 351 351 351 351 351 350 350 350 349 349 349 349 349 349 349 348 348 348 348 348 347 348 348 348 347 347 347 348 348 347 346 346 346 345 346 347 347 347 347 347 347 346 347 347 347 347 347 346 345 344 344 343 344 344 344 343 343 342 343 343 341 338 337 336 335 335 336 338 340 341 342 342 342 342 342 340 341 342 341 341
346 347 347 347 347 351 351 351 350 350 350 350 349 349 348 349 349 349 348 348 348 348 348 348 348 347 347 347 348 347 347 347 347 345 347 346 346 345 346 346 346 346 346 346 346 346 346 346 346 346 347 347 346 345 345 343 343 343 345 344 343 343 342 342 342 340 336 336 337 338 340 340 337 337 341 342 342 342 342 341 340 340 340 342 341
346 346 346 346 346 350 351 350 350 350 350 349 349 349 348 348 348 348 348 348 348 348 348 348 348 347 347 347 347 347 347 347 346 346 346 345 345 346 346 346 346 346 345 345 346 346 347 346 346 346 347 346 345 344 345 345 344 344 344 343 343 342 342 341 339 335 336 336 336 336 339 339 337 335 340 341 342 342 342 342 341 341 341 341 341
345 345 346 346 349 350 350 350 350 349 350 349 349 348 348 348 348 348 348 348 348 349 348 348 347 347 347 347 346 346 346 345 345 345 345 346 347 347 347 346 346 345 344 344 345 345 345 345 345 346 346 346 345 344 344 344 344 344 343 343 342 341 342 341 336 335 335 335 335 336 336 338 336 337 340 342 342 342 341 341 341 341 341 341 340
344 345 346 346 346 350 350 349 349 349 349 348 348 348 348 348 348 349 349 348 348 348 349 349 348 347 347 347 346 346 346 346 345 346 346 346 347 347 346 347 346 344 344 345 345 345 345 345 345 345 344 344 344 344 344 344 344 344 343 342 341 341 342 341 336 336 336 336 336 337 338 339 339 338 341 341 341 341 341 340 340 341 341 341 340
343 344 345 346 346 349 350 349 349 348 348 348 348 348 348 348 348 348 348 348 348 348 348 348 348 347 347 346 346 346 346 346 345 346 346 346 345 345 346 346 346 345 345 345 345 344 344 344 344 344 344 344 344 344 344 343 343 343 343 342 341 341 341 339 338 335 335 336 337 337 338 341 341 340 341 342 341 342 341 341 340 341 341 341 340
343 343 344 345 345 347 349 350 349 348 348 347 347 347 348 348 348 348 348 348 348 348 348 348 348 348 348 347 346 346 346 346 346 346 345 345 344 345 345 345 345 346 345 345 345 344 344 344 344 344 344 344 344 343 343 343 343 343 342 342 341 341 339 334 333 334 335 336 337 337 339 340 340 340 341 340 340 339 340 341 340 341 341 341 341
344 343 344 344 345 346 346 348 348 348 348 347 347 348 348 348 348 348 348 348 348 348 348 348 348 348 348 347 347 347 346 346 346 346 346 345 344 344 345 345 344 345 344 345 345 343 344 344 344 344 344 344 344 344 343 343 343 342 341 340 341 340 340 336 333 333 333 335 336 338 339 340 342 342 342 341 341 340 340 340 340 341 340 340 338
344 344 343 343 343 344 344 345 346 348 348 348 348 348 348 348 348 348 348 348 348 348 348 348 348 347 347 347 347 347 347 346 346 346 346 344 344 344 344 344 344 344 344 344 344 343 343 343 344 344 344 344 344 343 343 343 342 342 340 340 340 340 339 336 332 333 334 336 335 335 338 339 340 341 342 342 343 342 340 338 339 340 338 338 339
343 343 342 342 342 343 343 343 344 344 344 346 348 348 348 347 348 349 349 349 349 349 349 348 348 348 347 347 348 347 347 346 346 346 345 344 344 345 345 344 344 345 345 344 343 342 342 343 344 344 344 344 344 344 344 343 342 340 340 340 340 339 339 336 331 332 334 335 333 337 337 339 340 340 339 339 340 342 343 341 339 337 337 338 338
342 342 342 341 341 341 342 342 342 342 342 342 343 345 347 348 349 349 349 349 349 349 349 349 349 348 348 348 348 348 347 347 346 346 345 344 343 344 344 344 344 344 343 342 342 341 342 342 343 343 343 343 344 344 343 342 341 340 340 339 339 338 337 333 330 330 332 332 333 335 336 338 338 338 339 338 339 338 338 338 340 339 337 336 337
341 341 341 341 341 341 340 340 341 340 340 340 341 342 346 348 349 349 349 349 349 349 348 349 349 349 348 348 348 347 347 345 346 345 345 345 344 344 344 344 344 344 344 342 342 342 342 342 342 343 343 343 343 342 342 342 341 340 339 339 338 336 330 330 329 329 331 333 333 334 336 336 336 336 337 337 336 337 336 336 336 335 336 336 337
340 340 341 340 341 340 339 339 339 338 339 339 340 341 344 347 347 347 347 347 346 347 346 346 346 347 347 348 348 340 339 341 342 341 346 345 344 343 344 344 343 343 343 343 342 341 342 343 342 342 343 343 343 342 343 341 341 339 338 338 336 330 330 330 330 332 331 332 333 333 335 334 334 334 335 335 335 335 335 335 334 333 333 333 333
336 337 340 340 339 339 338 337 337 337 338 339 339 339 342 342 337 339 341 343 345 344 343 342 347 340 347 343 339 343 336 337 340 347 343 345 343 343 343 343 343 343 343 343 342 342 342 343 343 343 343 343 343 338 341 342 341 339 338 337 330 330 330 330 331 332 333 333 334 333 333 333 332 332 332 333 333 333 333 333 333 333 333 332 332
334 336 337 339 339 338 338 337 336 336 336 336 336 337 336 335 335 337 340 344 345 342 339 340 334 336 336 337 338 336 336 338 340 343 345 346 344 345 344 344 343 343 343 343 343 344 343 343 344 343 343 341 334 334 334 334 337 339 337 331 330 330 330 330 331 331 332 334 334 334 332 332 331 331 331 331 332 332 331 331 331 331 331 331 331
335 336 336 338 339 338 336 336 335 335 335 334 334 334 333 333 333 334 334 334 335 336 332 332 332 331 331 332 331 336 334 334 345 345 348 340 341 343 344 344 342 342 345 342 344 342 341 342 342 340 337 334 332 333 332 331 329 329 329 330 330 330 330 330 331 330 332 335 333 335 333 331 330 330 330 330 330 330 331 330 330 330 330 330 329
336 337 337 337 338 337 335 335 334 334 333 333 333 332 331 331 331 331 331 331 331 330 330 329 329 328 328 329 329 331 329 329 330 335 332 332 333 335 337 336 334 335 340 330 331 332 331 330 332 334 331 333 332 331 331 330 331 330 329 330 330 330 330 331 331 330 330 333 334 334 333 332 331 330 328 328 329 329 329 329 329 329 329 328 329
336 335 336 337 338 337 336 334 333 332 332 332 332 335 332 330 329 329 329 329 329 328 327 327 327 326 327 330 331 325 326 327 327 330 330 329 331 332 331 330 329 331 335 331 330 330 330 330 331 331 331 332 331 331 333 332 330 329 330 330 330 329 330 330 331 331 330 332 333 333 333 331 330 329 329 329 328 328 328 328 328 328 328 329 328
334 335 336 337 337 336 335 333 332 331 331 331 332 331 329 329 329 328 328 327 327 327 325 325 324 324 327 331 326 323 323 324 324 326 327 326 329 328 329 329 329 329 329 330 328 328 329 330 330 330 330 331 330 331 330 330 330 329 330 330 330 329 329 329 330 330 330 331 333 333 332 331 331 330 329 329 329 329 329 329 329 328 328 328 327
334 335 336 337 337 335 334 332 331 331 330 331 330 329 327 328 332 336 329 336 329 325 323 323 324 324 327 330 328 323 323 323 323 324 323 325 328 326 326 329 329 328 327 328 328 328 328 329 331 330 331 331 330 330 330 330 329 330 329 330 330 329 329 328 329 329 328 328 333 332 331 330 330 329 329 328 327 327 327 327 327 327 327 327 326
333 335 336 336 335 335 333 331 331 330 329 330 329 327 327 329 332 328 327 338 324 322 322 324 323 325 324 325 326 319 319 320 320 320 319 325 326 327 328 330 330 328 328 327 329 329 328 329 330 329 329 329 329 329 329 329 329 329 329 329 330 329 328 328 329 328 327 327 328 331 330 329 329 328 328 328 328 328 328 327 326 326 327 327 327
333 335 336 335 335 335 333 331 331 330 329 329 327 327 327 329 329 328 328 334 322 322 323 321 321 320 319 320 322 318 318 318 318 316 317 319 323 326 330 330 331 330 329 329 328 328 329 329 329 328 328 326 327 327 329 328 328 329 329 330 329 329 329 328 328 327 327 327 328 332 329 328 327 327 328 328 329 328 327 327 327 327 327 327 327
335 335 335 335 335 333 331 331 330 332 328 328 327 327 328 328 330 327 330 323 323 324 320 319 318 318 319 318 318 320 316 317 317 316 317 317 320 324 328 330 330 330 330 329 328 329 328 330 331 329 327 326 325 326 328 328 328 328 330 329 329 329 329 329 329 328 327 326 327 329 330 329 327 327 327 328 327 327 327 327 327 327 326 325 326
334 334 335 335 333 331 330 330 330 330 329 328 330 327 327 328 330 328 325 323 325 318 317 317 322 318 318 317 317 318 321 316 317 316 317 318 319 321 325 329 331 329 331 330 329 330 330 330 331 329 329 327 325 327 328 328 326 327 328 328 328 328 328 328 328 327 327 326 325 326 329 329 328 327 327 327 327 327 327 327 327 327 327 326 326
335 335 335 335 332 329 329 329 329 329 327 328 328 328 327 329 329 327 324 325 323 317 316 317 316 318 317 316 317 318 321 317 318 321 324 316 318 321 323 328 328 329 330 331 331 329 330 331 329 330 327 325 324 325 326 326 326 325 327 327 328 327 328 328 328 327 326 325 324 324 326 329 329 327 327 325 325 325 326 327 326 326 327 327 327
334 335 335 333 332 330 330 329 328 328 327 327 328 327 327 328 328 325 327 324 320 317 320 316 320 318 316 316 317 320 318 318 318 317 316 316 317 319 322 324 327 329 330 330 330 329 329 329 328 328 335 326 323 324 324 323 324 325 326 326 326 327 327 327 327 326 325 324 323 323 323 324 325 326 328 326 325 324 324 325 326 326 326 326 326
334 334 334 334 332 330 331 329 331 327 330 328 330 328 327 329 325 324 323 322 318 317 318 317 318 315 315 316 319 322 318 318 318 317 316 316 316 316 317 318 319 325 329 330 330 328 329 328 328 326 324 325 322 324 322 323 323 323 324 326 325 325 326 327 326 325 324 323 322 322 322 323 323 324 325 324 332 326 325 325 325 325 325 325 325
334 334 335 334 331 331 331 329 329 327 327 329 328 328 327 326 324 327 321 320 319 317 318 318 316 317 317 317 320 323 318 318 318 317 316 316 316 316 316 318 321 324 327 328 329 328 326 326 327 326 324 324 322 322 322 321 322 323 324 325 325 327 325 326 325 325 324 322 322 322 321 321 322 322 326 324 324 326 326 326 325 325 324 325 325
334 335 334 332 331 332 332 329 328 328 327 329 327 326 325 324 323 324 319 320 318 318 318 317 316 315 315 316 320 324 317 317 318 318 317 316 316 316 317 318 323 324 326 327 328 327 326 326 325 327 324 324 321 320 320 321 321 323 323 323 324 326 325 325 325 324 322 321 320 320 320 319 322 327 326 323 321 322 326 326 327 326 325 323 324
335 335 334 332 332 332 330 330 328 329 328 327 326 325 323 324 323 320 324 318 318 318 318 317 315 314 315 316 320 322 320 317 316 316 316 317 316 316 317 320 322 324 325 325 325 325 325 326 325 323 325 323 321 320 319 320 320 321 323 322 323 324 324 324 324 327 322 320 320 319 320 319 321 321 323 322 320 321 320 323 327 327 326 325 324
335 334 333 333 332 331 331 332 329 328 328 326 325 323 323 322 320 320 318 317 317 317 317 316 315 314 314 316 320 321 321 316 316 319 318 318 315 315 317 319 321 321 323 323 323 325 325 323 324 322 326 324 322 321 320 320 320 321 321 322 322 323 323 322 324 325 321 321 320 321 318 319 319 320 321 321 320 320 320 321 321 321 327 327 326
334 334 333 332 331 330 330 329 328 328 326 324 324 322 321 321 318 317 317 318 316 320 316 316 314 314 316 318 319 317 320 318 315 316 317 316 315 315 317 319 320 320 321 322 321 323 324 324 321 322 324 325 324 322 322 322 321 321 322 322 321 322 321 322 322 321 321 319 320 322 319 318 319 319 320 321 320 319 319 320 323 321 320 324 327
332 333 332 331 331 329 329 327 327 327 325 323 321 320 318 316 316 316 315 315 317 317 317 315 315 315 317 317 319 318 316 320 317 314 318 323 315 314 315 316 319 320 320 319 320 320 322 324 324 328 324 323 323 323 322 322 320 318 320 320 320 321 322 321 319 319 319 319 318 320 320 319 319 318 320 320 319 319 319 318 319 319 320 320 322
329 331 331 331 331 329 328 327 327 326 325 323 323 321 318 317 315 315 313 315 319 316 314 314 315 316 318 318 319 317 314 318 320 316 314 312 314 315 314 315 317 320 321 320 324 329 323 322 323 322 320 323 322 323 321 320 318 317 317 316 320 320 320 319 318 318 317 317 317 317 318 318 317 318 319 319 319 318 318 318 318 319 319 319 319
329 329 331 331 330 329 327 327 326 326 324 324 323 321 320 320 317 315 316 315 317 318 317 318 319 315 316 316 318 316 314 315 318 320 313 313 312 312 313 314 318 323 316 315 317 319 319 321 322 323 320 320 322 324 323 322 319 317 318 318 313 314 319 318 317 316 316 316 315 314 316 316 317 317 318 318 318 318 317 317 317 317 318 318 318
328 328 330 330 330 329 327 327 326 326 325 325 326 323 322 320 319 317 317 316 316 322 315 315 315 315 316 315 315 316 315 315 315 318 317 313 312 312 312 314 319 320 317 315 316 316 318 319 320 322 320 321 318 321 324 321 319 318 316 315 313 312 311 314 315 317 316 315 314 313 314 315 316 316 317 317 317 317 317 316 316 316 317 317 317
327 328 329 330 331 329 328 327 326 325 325 328 327 324 323 318 319 318 318 316 316 313 314 313 314 317 318 315 314 316 315 314 313 313 319 313 312 311 312 314 316 318 317 316 317 317 318 318 319 322 320 321 317 316 320 321 321 323 319 313 312 312 312 313 313 316 316 313 312 312 313 314 314 315 316 316 317 317 316 315 315 315 316 316 316
327 329 330 331 331 329 328 327 326 325 325 326 325 324 322 318 316 315 314 312 311 311 311 312 312 313 314 314 315 315 314 315 312 312 315 315 312 312 313 316 317 319 318 317 315 317 317 318 319 320 319 318 320 317 319 321 322 324 320 320 320 316 313 313 314 314 317 316 314 311 311 312 314 315 316 316 316 316 316 315 315 315 315 315 315
328 330 330 330 331 330 329 328 326 325 326 326 325 325 320 318 317 316 315 313 312 311 311 313 313 313 315 314 314 314 313 313 313 311 312 318 312 312 313 315 316 316 323 316 317 318 317 318 320 319 319 320 318 318 317 318 320 322 322 321 320 318 315 317 315 311 313 316 316 315 312 309 311 312 313 314 316 316 316 315 315 314 313 314 314
328 329 329 329 329 330 329 328 327 327 326 327 325 324 321 318 316 315 316 313 313 314 313 313 313 317 314 315 313 312 313 313 312 311 312 314 315 311 312 314 314 314 321 316 318 315 317 318 320 317 318 320 319 319 317 316 320 317 320 321 321 320 317 317 314 318 313 312 315 316 314 311 309 310 311 312 314 315 315 315 314 314 314 312 313
328 328 329 329 330 330 330 329 328 327 326 327 325 323 323 320 318 316 316 315 314 315 317 319 315 319 314 314 313 313 313 313 311 311 314 314 322 314 312 312 313 315 323 316 315 315 317 316 316 317 317 317 318 318 318 317 317 319 319 319 319 319 318 318 318 315 316 313 313 313 316 313 311 310 309 310 311 313 315 316 314 315 315 314 312
327 329 328 329 329 329 329 328 327 327 327 326 326 322 322 321 317 316 316 315 318 315 315 314 313 314 313 313 312 313 313 313 311 310 311 312 316 318 312 312 313 314 321 314 314 315 314 315 315 315 315 315 316 320 319 318 317 319 318 319 318 317 317 317 316 317 315 315 315 314 310 309 310 314 312 309 309 309 311 314 315 314 314 315 314
326 327 326 327 328 328 328 327 327 328 328 327 325 322 321 319 318 316 316 315 315 314 313 313 313 312 312 312 311 312 312 312 311 313 311 310 310 320 314 311 311 321 321 314 314 314 314 315 314 314 316 316 315 316 320 319 318 318 317 318 319 319 319 316 317 315 317 314 311 311 313 310 311 311 314 312 312 309 309 310 311 312 314 314 314
Wind_Speed
11 13 11 17 19 20 19 19 18 17 17 17 17 17 17 17 18 17 17 17 17 16 15 15 14 15 14 14 14 14 13 13 13 13 12 12 12 12 12 12 12 12 13 13 13 11 14 14 13 12 12 12 12 12 12 12 12 12 13 13 13 12 12 11 11 11 10 9 9 9 11 11 10 12 13 9 7 6 5 7 3 3 2 4 9
16 13 10 13 20 19 19 19 19 18 18 17 17 17 17 18 17 17 17 17 16 16 16 15 15 14 15 14 14 14 13 13 12 13 13 13 12 12 12 12 13 13 13 13 13 14 14 14 13 12 12 12 12 12 12 12 12 13 13 13 12 13 12 11 11 11 12 12 13 13 13 12 10 9 9 9 10 7 5 4 3 2 1 5 7
12 12 11 14 21 20 19 19 19 18 18 17 17 18 18 17 17 17 17 17 17 17 16 15 15 15 14 14 14 13 13 13 12 13 13 12 12 12 13 13 13 13 13 13 14 14 14 13 12 12 12 12 12 12 12 12 12 13 13 13 13 13 12 12 12 13 14 14 13 13 14 13 13 12 12 10 8 5 6 4 3 4 1 7 6
15 10 10 16 20 19 19 19 19 19 17 17 18 18 18 18 17 17 17 17 17 16 16 16 15 15 14 14 14 13 13 13 13 13 13 13 13 13 13 13 13 13 14 13 14 14 13 12 12 11 11 12 12 12 12 12 12 13 13 13 13 13 13 13 13 14 15 15 14 11 8 7 9 12 12 11 7 5 5 6 5 6 5 7 9
14 11 10 11 13 17 19 19 19 19 19 18 17 17 18 18 17 17 17 17 17 16 16 15 15 14 14 14 13 13 13 13 14 15 14 13 13 13 13 13 13 13 13 13 14 14 13 12 11 11 11 12 13 13 13 12 13 13 13 13 13 13 13 13 13 15 15 16 14 11 7 7 4 10 13 11 6 4 5 8 8 7 8 9 13
13 11 10 10 10 14 19 19 19 19 19 18 17 18 17 17 18 18 17 17 16 16 16 15 15 14 14 14 14 14 14 14 15 15 14 13 14 13 12 13 13 14 13 12 13 13 12 11 11 11 12 12 13 12 12 12 13 14 14 14 14 14 14 13 14 15 16 15 14 8 7 6 7 6 14 12 6 4 9 8 10 6 9 12 15
14 11 10 10 9 12 20 19 19 19 19 18 18 18 18 18 18 17 17 17 16 16 15 15 15 14 14 14 14 14 14 14 15 15 14 14 13 13 12 13 13 14 12 13 13 12 11 11 11 11 12 13 13 12 12 12 14 14 15 14 15 14 14 13 14 16 15 10 7 7 6 6 8 5 11 10 8 8 10 8 11 11 12 12 14
11 10 9 9 9 15 20 19 19 19 19 19 18 18 18 18 18 17 17 17 16 16 16 15 14 14 14 14 14 14 14 15 15 14 14 13 13 13 12 13 13 12 13 13 12 12 11 11 10 12 13 13 13 13 13 13 14 15 15 15 15 15 14 14 15 16 15 8 6 5 5 5 6 4 11 11 10 11 11 13 14 12 10 14 13
11 11 10 9 10 20 20 18 18 19 19 18 17 18 18 18 18 17 17 16 16 16 15 15 15 15 14 14 14 14 14 15 15 13 14 14 13 12 13 13 12 12 12 12 11 11 10 10 10 11 12 13 13 13 14 16 15 14 16 16 16 16 15 14 15 15 10 7 8 6 6 5 5 4 10 11 12 12 13 12 11 13 15 14 11
11 9 9 8 10 20 19 18 19 19 18 18 18 17 18 17 17 17 17 16 16 16 15 15 15 15 15 15 15 15 15 15 14 13 14 14 13 13 13 13 13 12 12 12 11 11 10 9 10 11 12 13 13 14 14 15 15 15 17 17 16 16 15 15 15 14 9 8 8 8 8 9 8 5 9 12 13 14 14 14 10 10 11 14 13
11 9 8 10 12 19 19 18 18 18 18 19 18 18 17 18 17 18 17 16 16 16 16 15 15 15 15 15 15 15 16 14 13 14 14 14 14 14 13 13 13 12 13 12 12 12 11 10 10 12 13 13 13 14 15 15 16 16 17 16 16 16 16 14 13 7 9 9 8 6 8 12 9 4 9 12 15 16 16 16 15 13 13 13 14
10 9 9 9 14 19 18 18 19 19 19 18 18 18 18 17 18 18 17 16 16 16 16 16 16 16 16 15 15 15 15 14 14 14 14 14 14 14 13 13 13 13 12 12 13 12 10 10 11 12 13 12 13 14 15 15 16 16 16 16 16 16 16 14 9 8 8 9 9 7 6 8 10 7 10 13 16 17 17 16 15 13 13 14 15
10 9 9 8 10 18 18 18 18 18 18 18 19 18 18 17 17 17 16 17 16 16 16 16 16 16 15 15 15 15 14 14 14 14 14 14 14 13 13 13 13 13 12 12 12 12 10 10 11 13 13 13 13 14 15 16 16 17 17 17 18 17 16 15 8 11 9 8 7 6 6 7 10 13 12 14 17 17 17 18 16 14 13 14 16
10 9 9 9 8 16 19 18 18 18 18 17 18 18 17 17 17 17 17 17 16 16 16 16 16 16 15 15 15 14 14 14 14 14 14 13 13 13 13 13 13 12 12 12 12 11 10 10 12 13 14 14 14 14 15 16 16 16 17 17 17 16 14 11 12 8 8 8 7 7 8 7 8 16 14 16 17 17 16 18 18 17 16 16 18
12 10 9 8 9 10 18 19 18 18 18 18 18 17 17 17 17 17 17 16 16 16 16 16 16 16 15 15 15 14 14 13 13 13 13 13 12 12 12 12 12 11 12 12 11 11 11 11 11 13 14 14 14 15 16 17 17 17 17 18 17 15 12 7 6 7 7 7 5 7 6 7 14 16 16 18 18 19 18 19 19 18 17 18 19
13 11 10 8 8 9 9 16 20 18 18 18 17 17 17 17 17 17 17 16 16 15 15 15 15 15 14 14 14 14 13 13 13 13 13 13 12 12 12 12 11 11 12 13 12 12 11 10 11 13 13 14 14 15 16 17 17 17 17 17 17 16 13 8 5 6 4 4 4 4 6 7 16 16 15 17 19 20 20 20 17 17 19 19 17
11 11 10 9 9 8 9 9 13 20 18 18 17 17 17 17 17 16 16 15 15 15 15 14 14 14 14 14 14 14 13 12 13 13 13 12 12 12 12 12 11 11 12 12 12 12 10 10 11 12 13 13 14 15 16 17 16 15 15 15 15 15 14 10 6 5 4 5 3 3 3 5 13 14 14 15 17 20 22 21 18 18 17 16 17
11 10 10 9 9 8 8 9 11 10 10 14 17 18 17 17 16 16 15 15 14 14 14 14 13 14 14 14 14 14 13 12 12 12 12 12 12 12 12 11 11 11 12 13 13 11 10 9 10 11 12 13 14 15 15 16 15 14 14 14 15 15 14 11 6 6 6 6 6 5 6 13 15 14 15 15 15 17 19 20 20 19 15 17 15
10 9 8 9 8 8 8 7 7 7 8 6 6 12 17 16 15 14 15 14 14 13 13 13 13 12 13 13 13 13 12 12 12 12 11 12 12 11 11 11 11 11 13 11 12 10 9 7 8 9 11 12 12 13 14 14 14 14 14 14 15 15 14 7 6 6 6 6 5 6 7 14 14 14 14 14 15 15 16 16 16 16 17 17 17
10 9 9 8 7 8 7 6 6 6 5 5 6 7 13 15 14 14 14 14 13 13 13 12 12 12 12 12 12 10 10 9 12 9 11 11 11 9 10 10 11 11 11 12 10 9 8 6 5 8 9 10 11 12 13 14 14 14 14 14 14 12 7 5 6 6 5 5 5 5 10 13 13 13 13 13 14 15 15 15 15 14 14 14 16
8 9 9 8 8 8 8 6 6 6 5 5 5 5 9 13 11 13 14 14 13 13 12 12 11 10 10 11 9 6 5 5 6 5 9 6 9 10 9 10 10 10 11 12 11 9 9 7 5 7 9 9 9 10 11 12 14 14 14 14 12 6 5 5 5 5 5 4 5 6 12 12 12 12 12 13 13 14 14 14 15 14 14 12 13
11 8 9 8 8 7 8 7 6 6 5 5 4 3 4 6 5 5 5 8 10 11 7 4 5 4 9 7 5 4 5 5 4 6 3 4 6 10 9 9 9 9 11 11 10 9 9 9 7 9 9 9 9 5 5 9 13 13 13 13 6 5 5 5 5 5 5 4 5 7 11 11 10 10 11 11 12 12 13 13 13 14 14 13 13
11 9 9 10 8 7 6 7 6 5 6 5 3 4 5 4 5 5 5 6 6 5 4 4 3 4 5 5 4 4 4 4 4 4 3 6 6 9 9 8 8 8 10 11 10 10 10 10 10 9 9 10 6 4 4 5 5 11 10 6 5 4 5 5 4 4 4 4 4 10 10 11 10 10 11 11 11 11 11 12 12 12 13 13 13
11 10 9 9 8 7 7 6 6 6 6 5 4 5 5 5 5 5 5 5 5 4 4 4 4 4 5 5 5 4 4 3 6 7 6 3 3 7 9 8 7 7 10 7 9 8 11 10 10 9 6 4 5 4 4 4 4 4 4 4 5 4 5 4 4 4 4 4 5 12 11 11 11 10 10 10 10 10 11 11 11 11 11 12 12
10 11 9 9 9 8 7 6 5 5 5 5 5 5 5 5 5 5 5 5 5 5 4 4 4 5 4 5 4 4 4 4 4 4 4 4 4 4 5 4 4 5 7 5 4 4 5 5 5 5 4 4 5 4 4 4 4 3 3 3 4 4 4 4 4 4 4 4 6 11 11 10 11 10 9 9 9 9 9 9 10 10 10 10 11
11 9 8 9 9 8 7 6 5 5 5 5 5 5 5 5 5 5 5 4 5 4 4 4 4 4 4 4 4 5 4 4 4 4 4 3 4 4 4 4 4 4 3 4 4 4 4 4 5 4 3 3 4 4 4 4 4 3 3 3 3 4 4 4 4 4 4 4 6 11 11 11 10 10 9 9 9 8 9 9 9 9 10 10 11
10 9 9 8 8 8 6 6 6 5 4 3 4 5 5 5 5 5 5 5 4 4 4 4 4 4 4 4 5 4 4 4 4 3 4 3 3 3 3 2 4 3 2 4 4 3 4 4 4 3 3 3 3 4 4 4 4 3 2 2 3 3 3 4 4 4 4 4 6 11 10 10 10 10 10 9 9 9 9 9 10 10 10 10 10
10 10 9 9 8 9 7 5 6 5 4 4 5 5 4 5 4 4 5 4 5 4 3 3 3 4 3 4 4 4 4 4 3 4 4 2 2 2 2 3 2 3 2 3 5 4 4 4 3 3 3 2 3 3 3 3 3 4 2 2 2 2 3 3 4 4 4 4 4 8 10 9 9 9 9 10 9 7 8 9 9 9 10 10 10
11 10 9 9 9 8 7 6 5 5 4 5 5 4 4 4 4 5 5 4 5 4 4 3 4 3 3 4 4 4 3 3 3 3 4 4 3 3 2 3 2 2 3 3 4 4 4 4 4 2 2 3 2 3 3 3 3 3 3 2 2 2 2 3 4 4 3 3 4 6 9 9 8 9 9 9 10 10 10 9 8 9 9 10 10
12 11 9 9 8 8 8 7 6 6 5 5 5 5 5 5 4 4 4 4 5 4 4 4 4 4 4 4 4 5 5 5 4 3 4 4 4 4 3 3 3 2 2 2 3 3 3 4 4 3 2 2 3 4 3 4 3 3 3 2 2 1 1 2 3 3 3 3 3 3 8 8 8 7 8 9 10 8 8 9 9 9 8 9 9
12 11 9 9 9 8 7 6 6 4 4 5 5 5 4 5 4 3 3 4 4 5 4 4 5 4 4 4 4 4 5 4 4 3 3 4 4 4 4 3 3 2 2 2 2 3 3 2 4 2 1 1 3 3 4 4 4 3 3 3 2 1 0 1 2 2 3 3 3 3 5 8 7 6 6 7 8 9 9 9 9 9 9 8 9
12 12 9 9 10 8 7 7 6 5 5 5 4 5 5 4 4 4 4 4 5 5 5 5 5 4 3 4 4 4 4 4 4 3 3 4 4 4 4 4 3 2 3 3 2 2 2 3 3 2 2 2 2 3 3 4 4 3 3 3 3 2 1 1 1 2 2 3 3 3 3 4 6 6 6 6 6 7 8 8 9 9 10 10 9
9 11 11 11 11 8 8 7 6 5 6 6 5 4 4 4 4 4 3 4 4 5 5 5 5 3 3 4 4 4 3 5 3 3 4 4 4 5 4 4 4 3 3 3 3 2 2 3 3 2 2 3 3 3 3 3 3 3 3 2 3 3 2 1 1 1 2 2 3 3 3 3 3 5 6 6 5 6 6 7 8 8 8 9 10
10 9 11 11 9 6 6 6 6 7 6 5 4 4 4 4 3 4 3 4 4 5 4 4 4 4 4 4 4 4 4 4 5 3 4 5 4 4 5 5 4 4 4 4 4 3 2 2 4 2 1 3 4 5 5 4 3 3 3 2 2 3 2 2 2 2 2 2 2 3 3 2 3 2 2 5 6 5 6 6 6 7 8 7 8
9 10 11 11 9 7 6 6 6 6 5 5 5 4 3 4 4 4 4 4 4 5 5 4 3 4 4 5 4 4 4 3 2 5 4 5 5 4 3 3 3 4 4 4 4 3 3 3 2 3 0 1 3 5 6 5 5 5 4 3 3 3 3 3 2 2 2 2 2 3 2 2 2 2 1 0 2 5 6 6 6 7 6 7 8
12 11 11 10 9 7 7 6 6 6 5 5 4 4 5 4 4 4 4 3 5 5 5 4 4 3 4 4 3 4 5 4 2 0 6 4 5 4 2 1 2 3 4 4 4 4 3 2 1 3 2 1 3 4 4 5 4 4 4 3 3 3 3 3 3 3 2 2 2 3 3 2 2 2 2 2 1 2 5 6 6 6 6 6 7
12 12 12 10 8 8 7 7 8 8 6 5 4 3 3 4 4 4 5 4 5 5 4 4 4 4 4 4 3 3 3 3 3 0 4 5 5 4 3 3 2 4 4 4 4 4 4 3 1 2 3 3 3 5 5 5 5 4 3 4 4 4 4 4 3 2 2 3 3 3 3 3 2 3 2 2 2 2 4 5 7 5 6 6 6
12 12 12 11 10 8 7 7 7 7 6 6 5 5 4 3 3 4 3 4 3 4 4 4 5 4 3 3 3 4 3 3 2 1 2 3 5 5 3 4 4 4 4 4 4 4 4 4 2 1 3 2 3 5 6 5 4 4 4 4 4 4 4 3 2 3 3 3 3 4 4 3 2 2 2 2 2 2 2 4 5 7 7 7 7
9 12 11 9 8 7 7 7 7 7 6 6 4 4 4 3 3 3 3 3 3 3 3 3 4 5 3 3 3 4 3 3 2 1 3 2 5 5 4 4 4 4 4 4 4 4 4 3 2 1 3 1 3 5 6 6 5 4 4 4 3 4 2 2 2 2 3 3 3 4 2 3 2 3 3 3 2 2 3 2 1 3 3 8 8
8 8 9 9 9 7 6 6 7 7 6 5 5 5 5 5 5 3 3 2 2 3 1 2 3 4 3 3 2 3 3 2 3 2 2 2 2 5 5 4 4 5 5 4 4 4 5 4 2 2 2 3 2 2 5 5 3 2 1 2 2 2 3 2 3 3 2 4 4 3 4 2 3 3 3 3 2 3 3 3 2 1 1 4 9
9 10 10 10 10 10 9 8 7 7 7 6 5 6 5 4 2 3 4 2 3 2 2 1 2 3 2 2 2 3 3 3 2 3 4 2 2 2 5 4 3 4 4 4 3 3 2 3 3 2 2 2 4 4 3 5 6 3 3 1 3 2 3 2 4 3 4 3 3 4 3 3 4 4 4 2 3 3 3 3 3 2 2 2 4
8 10 10 11 10 9 9 8 6 6 7 8 7 5 4 5 5 5 4 4 4 4 3 4 5 3 2 2 2 2 3 2 2 2 2 3 1 1 3 5 4 4 4 3 3 3 3 4 4 3 2 3 4 4 2 5 1 3 3 0 3 2 1 2 4 5 5 4 4 4 4 5 5 5 3 3 3 3 4 3 3 3 3 2 3
9 9 9 10 10 9 8 7 7 7 6 6 7 4 3 3 3 4 5 3 0 0 1 1 2 2 0 0 1 1 3 1 2 3 4 2 2 2 2 3 5 4 4 4 3 3 2 4 5 5 2 2 2 4 7 3 3 1 2 3 1 2 3 2 3 6 6 5 4 5 5 6 6 4 3 3 3 4 3 3 4 4 4 4 3
7 6 7 9 8 8 8 8 8 6 6 6 6 3 5 5 6 6 5 4 3 2 3 3 2 1 1 1 1 0 1 1 2 2 2 3 3 2 1 2 4 4 5 4 2 2 2 2 3 3 4 2 1 2 4 6 5 6 2 3 2 2 3 4 6 4 5 6 5 6 5 6 4 4 3 5 4 3 4 3 5 4 4 4 3
7 8 7 8 7 10 9 10 8 8 7 7 6 5 7 6 6 6 5 5 5 4 3 2 1 0 0 1 4 1 2 2 2 2 2 4 3 3 3 1 2 3 4 4 2 1 2 2 3 4 3 3 3 2 0 4 5 2 5 3 2 1 3 3 1 4 1 4 7 6 5 6 5 4 5 6 4 4 4 4 5 4 5 4 4
8 8 8 8 8 8 8 7 6 6 7 6 6 6 6 7 6 6 4 4 4 4 5 6 4 4 6 2 2 2 3 3 3 3 3 4 5 4 4 4 3 2 3 4 4 2 1 2 3 3 3 2 1 2 2 0 1 3 3 2 3 3 2 2 1 3 2 4 2 3 6 6 5 5 5 6 6 5 4 5 5 6 5 5 5
8 7 5 5 6 7 7 8 7 6 6 6 6 6 6 6 7 7 7 7 7 4 2 2 6 4 2 2 3 1 3 4 4 4 4 3 4 5 5 5 4 3 2 4 3 2 2 1 1 2 2 3 3 2 4 3 2 1 3 3 2 1 2 3 3 1 4 2 3 4 5 5 6 6 7 7 7 5 5 5 6 6 6 5 5
7 6 5 4 5 6 6 7 6 6 5 6 7 6 7 6 5 5 5 6 6 7 5 4 2 2 3 2 2 3 3 4 5 3 3 2 3 4 4 4 5 4 3 3 2 3 3 1 2 2 3 4 4 3 4 2 3 3 0 3 4 2 2 2 3 3 2 3 4 1 3 4 4 6 7 8 7 7 6 6 7 6 6 6 6
5 6 6 5 4 4 4 4 6 1 5 6 6 5 6 7 7 6 5 3 2 1 2 2 4 2 3 2 3 4 4 4 3 2 1 3 2 4 5 4 4 4 2 3 3 4 3 2 2 2 3 3 4 3 2 4 4 6 3 3 2 4 1 0 2 3 2 2 5 4 4 2 2 5 7 6 6 6 7 7 6 6 6 6 6
3 4 4 4 4 4 4 5 7 3 1 3 5 5 6 5 6 5 5 4 3 3 3 4 4 3 4 4 4 4 5 4 3 3 2 2 1 2 4 5 5 5 2 4 4 4 4 4 4 4 4 4 4 5 5 4 4 5 4 3 3 1 2 2 3 3 1 3 6 5 3 3 4 4 2 6 8 7 7 5 6 7 7 6 7
3 3 3 4 5 5 5 7 7 6 4 3 3 6 4 5 6 6 6 6 5 5 5 3 3 2 4 5 5 6 4 5 2 3 3 2 2 1 2 3 2 2 2 3 4 4 4 4 4 3 4 5 4 4 4 4 4 4 5 5 6 6 6 6 5 5 5 4 2 5 5 5 5 5 5 3 4 5 5 4 6 6 7 7 6
Wind_Direction
163 146 151 152 152 151 145 141 141 141 137 131 127 127 127 125 122 119 117 114 114 114 115 112 112 111 110 110 108 108 108 107 106 106 105 104 103 101 98 96 97 95 90 93 96 87 85 84 83 79 77 75 74 73 73 71 71 69 68 66 63 65 66 61 59 61 64 61 51 41 37 42 23 37 66 23 60 72 49 73 78 102 131 139 128
152 147 151 151 152 148 145 141 142 140 135 130 128 127 127 123 120 117 116 117 117 117 116 115 112 111 111 110 110 109 108 107 106 105 104 102 100 99 98 97 96 98 100 96 94 86 82 82 81 80 78 77 75 74 74 74 72 69 66 64 63 63 65 62 58 58 57 53 51 50 48 48 48 73 81 87 85 87 118 167 152 105 343 123 116
134 142 147 150 149 148 143 139 142 137 134 129 130 131 126 124 121 120 120 120 119 118 117 116 115 113 111 109 108 107 106 105 104 99 96 97 97 96 95 96 96 95 95 91 89 87 83 82 80 80 79 77 75 73 72 72 72 70 69 66 64 60 59 60 58 57 56 58 50 45 44 50 52 55 61 65 85 107 142 160 112 74 30 97 83
136 140 141 147 147 144 140 140 140 135 133 133 132 130 127 125 124 122 121 120 119 119 118 117 115 111 110 108 107 106 104 103 100 99 94 93 97 96 96 96 99 97 97 96 90 86 84 83 80 80 79 77 74 71 70 71 71 71 70 67 64 59 58 60 58 56 58 56 52 44 41 45 53 62 73 79 98 130 153 133 103 93 79 96 91
132 136 136 139 143 140 139 139 139 137 134 133 133 132 129 127 125 123 122 121 120 119 117 116 113 111 109 108 106 105 101 98 97 96 94 96 96 98 97 101 99 95 86 92 91 88 86 84 84 83 80 77 74 72 71 71 70 70 69 70 68 67 64 61 59 57 54 52 48 44 43 57 46 68 85 82 82 105 131 106 94 93 104 84 98
132 131 131 134 137 139 139 138 141 134 134 134 134 133 131 129 126 125 123 121 120 118 117 114 111 110 109 107 105 103 99 95 94 96 98 97 97 100 103 101 98 93 98 96 91 89 87 85 85 83 80 77 74 72 71 71 71 69 69 69 69 68 65 64 64 62 55 49 47 47 44 46 56 44 77 96 103 104 68 54 93 87 93 97 89
128 128 128 132 132 136 136 137 138 135 135 136 134 135 133 129 127 125 123 121 120 118 116 114 111 110 109 106 104 101 99 95 92 96 97 97 100 103 106 104 98 102 104 98 93 90 88 86 83 81 80 78 75 75 75 75 76 73 70 69 71 70 69 67 64 60 53 50 50 50 46 40 53 58 79 102 107 88 89 86 73 60 57 62 86
119 123 127 128 129 138 137 140 140 135 137 136 136 135 133 130 128 125 124 122 120 118 115 112 111 110 108 105 102 100 97 95 94 93 100 100 98 96 90 88 92 93 92 92 94 91 90 87 82 80 79 77 77 77 77 75 72 75 74 72 72 71 68 65 60 57 56 53 49 48 45 36 43 16 86 100 98 92 87 72 70 91 86 80 81
121 122 124 126 131 137 139 140 136 137 138 136 138 135 133 131 129 126 124 121 120 118 115 113 111 109 106 103 101 99 99 99 98 101 101 100 100 97 96 96 96 96 95 94 94 92 89 87 82 79 80 79 78 77 75 74 76 76 75 73 72 70 69 64 60 57 56 55 56 54 49 39 26 23 70 78 83 79 71 70 74 82 89 94 107
120 121 122 121 136 140 139 137 139 138 137 139 137 136 135 132 129 126 123 122 120 118 115 113 110 108 106 103 98 94 94 93 99 104 99 96 94 94 94 93 93 94 94 95 96 95 92 83 80 80 81 81 79 77 78 83 80 75 78 76 73 71 70 64 60 60 60 58 58 58 58 56 44 17 75 83 80 82 87 85 86 84 85 85 90
119 120 116 123 138 141 137 138 139 139 140 140 138 138 136 132 128 125 125 123 121 119 116 113 110 108 106 104 103 103 102 100 101 99 96 95 92 88 88 87 88 89 92 95 97 93 87 82 79 81 82 81 79 78 78 78 80 82 81 79 77 75 70 63 61 58 60 61 60 47 50 55 76 35 64 81 87 83 81 81 80 78 82 91 89
119 116 118 127 139 139 138 141 141 142 141 141 139 139 136 133 130 128 125 124 122 119 116 112 110 108 107 105 103 102 102 104 100 97 93 92 91 89 86 85 86 89 92 95 92 89 85 80 79 81 84 82 79 78 79 82 84 84 84 82 79 75 70 66 64 64 62 60 59 45 36 59 90 91 80 82 83 80 84 88 85 80 80 83 90
120 117 120 126 137 141 139 140 141 141 142 142 140 139 137 134 130 128 126 124 120 118 115 111 110 110 108 107 106 104 101 98 97 96 93 92 90 89 87 87 90 92 94 92 90 87 84 82 79 84 88 86 83 82 81 81 84 85 84 82 80 76 74 69 60 63 60 61 61 49 38 50 73 81 84 83 83 83 85 87 89 87 80 79 81
120 117 122 129 141 141 139 142 142 142 142 141 140 140 138 134 130 129 126 124 121 117 114 113 113 111 110 108 106 104 102 100 99 97 95 94 92 90 90 90 93 98 96 94 92 91 87 84 85 86 87 88 87 85 83 83 85 85 83 79 79 77 70 63 61 63 60 55 56 49 50 59 77 85 83 86 82 80 77 80 83 84 78 76 80
123 120 126 132 137 139 141 143 144 143 142 142 142 139 136 134 131 128 126 123 120 117 116 115 115 113 111 110 109 105 102 101 99 98 97 96 96 95 94 95 97 98 99 95 99 95 89 87 88 87 90 92 90 88 87 89 90 88 87 88 87 79 68 64 52 57 59 58 48 50 44 54 73 79 83 86 90 87 80 78 79 81 84 84 82
121 124 126 130 135 136 139 145 143 142 141 141 140 138 137 134 131 129 126 123 120 119 118 118 117 115 113 111 109 107 104 102 100 98 98 99 98 97 97 98 102 104 106 108 101 94 89 88 89 91 92 94 94 92 94 95 93 91 90 87 86 81 71 63 62 58 44 46 41 46 50 69 74 76 79 82 88 91 90 84 77 72 75 80 86
118 124 128 129 127 132 133 140 143 142 142 141 142 139 137 135 132 128 125 123 122 121 120 120 119 117 116 114 111 108 107 104 102 101 101 100 101 98 98 100 104 108 102 102 102 94 91 91 91 93 95 97 99 98 99 98 95 91 89 87 86 83 74 60 51 53 48 48 40 30 54 70 70 75 83 88 85 84 89 93 92 84 81 78 79
120 125 128 129 128 131 133 138 140 135 139 142 142 139 138 136 132 129 127 125 124 123 123 122 121 122 121 119 115 112 110 107 104 103 103 104 102 100 99 100 103 105 108 110 99 93 90 90 94 98 101 102 103 104 103 102 99 96 92 89 87 84 78 66 47 42 43 40 30 34 47 64 65 63 61 63 72 81 88 92 95 98 94 92 88
123 122 122 127 131 131 130 132 131 127 132 131 136 140 139 138 134 132 130 128 125 126 124 124 123 123 123 121 120 117 115 113 107 106 106 108 108 105 104 102 103 104 104 104 96 90 85 91 105 107 107 108 107 107 105 101 98 97 95 93 89 85 75 63 45 41 42 38 30 33 54 62 66 67 67 66 67 68 69 82 91 90 96 99 100
128 127 126 125 128 123 125 123 118 119 120 126 136 138 142 140 136 133 130 126 126 127 128 128 127 125 124 122 121 118 115 113 112 108 111 111 112 111 108 105 105 101 94 91 90 84 80 85 118 122 111 108 102 102 104 102 99 98 95 91 86 76 64 56 59 44 37 43 40 38 61 61 63 65 67 68 68 67 70 72 73 75 77 83 84
130 129 130 130 125 120 117 111 112 116 120 119 121 131 145 141 135 132 129 128 130 130 133 132 130 128 123 123 114 98 98 98 107 109 108 113 118 116 111 108 103 98 90 84 79 76 70 73 117 136 117 103 99 93 96 99 102 103 99 92 82 68 64 65 65 65 50 44 43 52 63 61 60 62 67 70 69 68 67 65 69 75 75 75 77
138 136 132 128 124 117 117 116 117 121 119 117 120 137 125 114 115 115 119 127 132 134 126 122 120 121 125 109 104 104 95 109 109 110 111 111 117 121 118 110 103 98 93 88 82 74 72 76 107 129 119 107 77 50 65 99 103 104 103 96 82 74 64 64 66 63 55 53 52 72 73 69 67 68 69 68 69 72 72 68 70 74 77 77 78
139 138 137 129 125 120 121 124 125 124 118 115 118 109 106 105 102 107 111 117 114 111 116 106 101 103 91 99 90 88 102 97 96 117 112 123 126 121 122 113 106 101 100 93 83 71 75 86 91 107 91 70 66 59 58 39 65 91 92 88 84 83 82 75 68 57 59 61 59 83 77 74 69 66 65 66 71 73 72 74 74 74 77 80 79
139 136 131 126 130 134 129 125 131 131 124 126 114 110 107 103 97 95 95 93 99 102 99 107 91 90 94 87 87 84 78 65 127 133 117 80 100 122 125 117 105 103 89 73 74 70 71 75 79 75 68 69 75 69 64 59 78 78 91 93 94 90 83 78 70 60 56 68 80 92 89 87 79 71 67 71 75 73 73 75 78 78 77 78 78
135 135 130 130 138 133 129 128 130 130 130 130 122 119 114 99 97 94 95 101 101 95 99 96 98 99 95 92 92 90 78 64 35 55 58 75 58 59 68 64 67 57 84 81 72 64 64 71 65 62 64 84 82 83 80 78 69 67 72 82 91 87 80 74 75 64 56 76 92 96 96 98 100 98 92 85 78 84 88 87 84 82 82 83 83
133 135 129 134 138 136 134 135 133 134 135 134 132 129 115 115 112 108 98 101 104 101 102 100 102 107 102 101 92 88 78 65 58 72 60 65 63 51 73 92 70 78 81 95 83 78 75 68 80 86 84 87 101 98 97 110 98 71 65 66 69 75 78 76 68 66 49 65 92 96 99 98 96 94 92 93 99 100 97 91 88 89 90 90 86
141 138 128 132 131 132 135 137 139 135 126 120 113 111 117 120 115 115 111 115 109 109 109 109 115 116 110 114 106 96 87 89 89 88 90 56 77 89 92 69 109 110 108 107 92 83 90 88 94 110 109 118 116 112 115 112 114 105 83 66 64 72 79 79 74 64 41 43 90 96 99 104 108 112 112 112 108 107 104 104 103 101 96 96 98
142 137 137 134 139 144 144 142 142 136 130 127 119 120 123 121 130 116 112 136 120 121 136 142 138 129 130 123 110 117 125 118 130 127 147 104 136 112 112 97 80 104 113 108 110 92 92 93 108 108 133 151 166 141 130 124 122 117 109 88 69 65 71 83 86 73 49 52 69 98 100 104 111 109 106 108 108 98 99 103 109 108 108 104 105
149 140 136 132 142 149 147 147 145 134 134 138 126 125 127 123 113 120 139 133 122 143 157 145 141 119 117 131 131 115 107 132 160 171 143 169 177 165 138 138 114 105 108 82 105 111 97 109 104 118 145 157 184 181 154 135 132 122 126 120 81 72 62 80 89 87 71 57 74 101 102 105 110 116 120 119 118 125 123 121 116 116 116 119 117
152 142 136 135 142 151 153 155 150 143 148 131 134 134 141 132 133 133 173 116 133 142 139 139 140 126 125 137 138 140 153 162 171 153 159 186 187 191 169 172 146 131 111 113 104 107 120 106 113 120 165 194 204 206 165 145 147 140 135 134 105 70 75 92 94 92 95 77 59 94 108 110 115 119 125 129 127 122 120 121 125 124 121 122 123
145 145 137 139 150 153 157 155 145 145 147 136 145 149 143 137 139 146 125 129 132 124 122 129 132 131 135 125 127 136 139 144 141 152 133 154 177 179 195 164 170 141 125 120 107 117 115 118 111 140 251 211 208 194 163 156 148 156 155 139 125 111 96 78 100 95 93 97 80 75 116 120 119 126 123 122 126 130 132 131 131 128 130 132 132
151 148 144 144 149 159 157 156 152 150 148 147 150 154 149 146 140 142 141 138 135 124 127 134 130 122 120 122 131 136 140 144 140 144 129 139 156 172 172 171 195 146 133 126 119 124 132 116 114 135 239 53 147 153 146 149 160 162 154 143 134 142 177 158 129 102 98 103 96 88 87 125 130 132 134 131 133 133 134 133 135 138 140 142 138
148 146 144 144 155 160 160 160 152 153 152 159 161 159 143 145 143 156 154 143 132 128 132 134 127 134 142 150 147 150 149 145 161 142 123 108 122 139 147 176 185 172 150 143 133 125 106 112 99 110 101 78 106 130 123 118 146 161 159 150 145 165 179 179 161 114 131 117 111 99 91 101 114 143 143 142 139 136 138 146 144 144 146 144 146
142 144 141 148 157 163 155 151 156 158 162 155 148 155 155 147 140 147 147 143 140 136 140 134 138 165 158 147 142 148 140 145 136 123 109 95 94 122 160 177 186 184 164 153 155 151 180 158 124 105 158 109 150 159 144 149 156 151 171 153 170 186 174 180 188 184 143 154 121 112 111 97 112 94 128 156 159 151 155 152 153 155 153 149 148
135 141 150 150 157 158 149 158 163 158 154 159 161 162 154 150 147 147 155 159 147 143 139 126 143 169 142 133 138 132 123 120 133 131 106 103 96 94 107 183 193 198 175 168 154 152 166 208 135 108 345 81 165 169 164 161 160 177 177 168 191 191 193 194 179 195 183 162 147 133 117 124 116 129 121 3 191 175 171 171 163 168 168 164 158
143 146 145 147 153 156 155 155 154 155 159 168 163 159 167 165 159 152 152 159 148 148 148 143 161 156 122 117 116 119 121 126 119 228 110 103 102 93 96 178 150 150 161 152 150 162 166 150 69 124 126 277 156 172 162 157 171 174 173 176 191 205 204 201 197 195 193 159 183 161 144 146 144 153 176 140 225 294 208 184 183 175 182 181 171
147 147 148 147 148 158 153 151 158 164 163 161 147 156 153 166 164 149 160 158 160 150 139 143 150 121 117 117 114 109 107 120 136 310 118 114 95 80 21 5 79 136 150 157 158 153 150 157 155 119 133 184 192 158 167 164 169 176 170 183 202 206 211 211 196 186 156 201 209 203 168 170 180 201 166 163 252 243 297 236 198 200 191 196 195
146 147 149 151 155 157 156 157 162 163 158 156 162 154 164 166 143 135 151 158 150 131 136 155 127 124 124 141 125 120 123 121 114 96 79 109 109 103 61 32 81 114 127 130 132 126 128 148 194 84 127 113 202 161 172 167 158 161 181 199 212 220 224 222 197 193 192 217 230 231 206 174 180 206 206 195 211 272 254 313 289 226 211 204 205
144 147 149 148 145 148 151 158 160 155 151 148 134 121 107 83 68 89 107 108 95 93 121 133 136 127 161 161 147 130 134 134 128 122 100 75 101 94 72 51 88 105 114 115 123 127 125 103 139 94 72 109 212 183 167 161 161 165 188 209 213 240 272 244 222 220 201 224 232 238 239 206 199 211 208 210 201 207 261 248 296 349 239 220 213
126 135 147 146 142 142 149 155 161 155 139 126 124 121 117 130 127 85 78 80 84 118 89 148 134 156 178 160 155 127 114 112 102 72 64 54 73 107 90 63 100 118 117 115 134 165 164 152 135 147 86 59 32 102 123 113 76 91 280 283 274 288 255 253 242 236 220 224 228 234 234 223 220 225 223 207 203 200 219 236 259 275 279 277 233
137 150 155 156 153 157 156 164 164 150 143 139 141 146 137 123 91 145 144 141 138 122 145 196 195 202 146 151 172 153 117 108 109 101 96 75 28 43 103 66 64 84 94 125 163 185 169 137 139 112 133 113 66 20 22 110 124 66 44 13 300 272 273 260 262 260 248 246 239 237 235 238 230 234 229 209 206 207 211 219 230 224 244 213 294
153 152 162 165 161 158 162 154 148 152 154 156 155 170 165 164 150 166 146 132 139 152 179 225 212 194 137 186 191 128 100 122 121 122 112 120 110 42 91 119 89 72 77 94 112 101 108 129 133 107 29 146 135 135 48 87 345 161 134 342 346 339 264 257 262 253 247 242 234 239 234 235 235 232 233 222 225 219 220 217 214 225 222 212 233
154 161 163 163 159 159 157 151 160 159 157 157 148 171 150 117 120 157 138 118 306 72 103 129 156 136 84 337 346 78 120 140 162 154 135 134 144 114 118 119 112 116 82 47 48 59 82 144 166 156 133 43 116 138 153 149 187 30 69 106 278 294 315 322 257 249 241 235 223 236 238 239 241 244 242 241 232 232 233 222 225 220 221 225 211
161 166 175 170 162 157 158 160 167 166 155 164 162 151 111 91 77 107 86 97 153 107 63 64 84 91 236 359 338 93 111 202 223 207 133 150 151 151 107 69 113 125 127 118 94 82 78 107 145 153 123 134 25 160 155 157 141 153 174 224 218 138 329 267 258 268 214 230 223 238 237 246 252 257 245 249 238 237 245 233 233 224 224 219 220
169 178 179 179 173 166 165 166 166 167 164 165 158 139 112 86 95 82 87 74 54 57 84 59 76 100 302 277 254 181 193 226 221 209 183 169 165 156 137 146 93 109 115 117 129 169 184 202 167 137 165 158 217 268 277 164 183 203 141 108 27 354 240 256 17 278 207 211 231 232 239 250 248 237 240 250 238 231 228 236 237 237 227 219 218
180 185 186 184 170 163 156 155 154 160 164 168 151 145 143 136 125 125 123 97 112 128 166 180 192 191 204 215 256 234 213 234 244 215 204 160 168 170 151 135 120 104 110 115 131 105 94 138 207 164 162 142 165 136 280 237 229 156 149 141 165 182 195 253 80 288 317 223 290 228 233 239 238 238 238 247 243 236 218 232 223 236 231 231 226
189 184 177 180 165 155 151 155 160 163 162 158 153 148 139 148 158 164 163 162 163 230 229 207 182 189 161 204 232 272 226 222 240 225 213 197 159 168 165 162 160 165 136 110 121 159 167 189 132 139 156 143 113 151 216 261 4 271 202 186 161 168 165 136 240 70 327 322 230 247 244 232 230 233 237 238 239 234 227 222 226 227 226 225 225
172 153 156 165 156 148 153 160 159 157 164 157 161 157 152 158 155 159 154 155 173 192 194 182 143 138 160 225 261 266 260 238 240 235 236 208 156 173 174 165 156 187 155 147 161 164 139 64 137 139 134 145 157 177 228 174 187 273 144 230 235 154 144 90 136 227 197 275 304 280 236 245 232 234 235 243 231 229 227 217 224 223 223 225 221
158 157 168 167 144 133 141 127 83 78 173 161 156 156 159 165 164 155 154 160 162 142 138 131 150 151 168 254 240 245 257 259 264 295 282 206 176 163 172 166 158 175 166 149 149 161 160 145 141 164 170 167 182 172 146 203 188 233 240 268 205 228 193 31 148 131 193 194 273 257 280 334 248 246 241 233 237 224 223 220 216 222 221 222 218
124 116 128 118 105 107 122 103 102 131 165 168 155 160 159 153 150 155 159 160 131 90 115 134 152 154 191 219 230 247 246 260 295 309 331 299 216 142 162 186 173 157 159 172 166 161 156 164 189 193 190 190 193 178 197 210 198 234 216 205 177 110 206 260 212 174 121 207 247 274 211 255 291 288 242 235 234 233 228 221 218 221 223 222 217
118 108 101 125 137 131 132 133 158 158 157 149 180 174 154 156 161 159 169 176 163 139 121 117 133 154 201 222 217 223 232 242 309 291 289 267 271 185 161 186 171 165 142 154 195 205 187 182 167 160 179 201 185 191 209 216 202 218 225 206 215 201 206 207 218 204 204 207 211 262 253 215 234 277 272 270 261 251 239 222 228 228 226 226 220